AirNav   Air Wisconsin pilot careers
 
 368 users online  

XS77 Seafood Warehouse Park Airport
Crystal Beach, Texas, USA

GOING TO CRYSTAL BEACH?


FAA INFORMATION EFFECTIVE 11 OCTOBER 2018

Location

FAA Identifier: XS77
Lat/Long: 29-27-55.8360N / 094-37-38.6950W
29-27.930600N / 094-37.644917W
29.4655100 / -94.6274153
(estimated)
Elevation: 9 ft. / 3 m (estimated)
Variation: 06E (1985)
From city: 1 mile N of CRYSTAL BEACH, TX
Time zone: UTC -5 (UTC -6 during Standard Time)
Zip code: 77650

Airport Operations

Airport use: Private use. Permission required prior to landing
Activation date: 06/1991
Control tower: no
ARTCC: HOUSTON CENTER
FSS: MONTGOMERY COUNTY FLIGHT SERVICE STATION
Attendance: UNATNDD
Wind indicator: yes
Segmented circle: no

Airport Communications

WX ASOS at GLS (17 nm SW): 119.275 (409-740-9248)

Nearby radio navigation aids

VOR radial/distance  VOR name  Freq  Var
MHFr121/7.9TRINITY VOR/DME113.6007E
VUHr041/17.2SCHOLES VOR/DME113.0006E
SBIr240/33.5SABINE PASS VOR/DME115.4007E
HUBr104/35.8HOBBY VOR/DME117.1005E

 
NDB name  Hdg/Dist  Freq  Var  ID
GALVESTON032/10.420608EGLS --. .-.. ...

Airport Services

Fuel available: 100LL

Runway Information

Runway 12/30

Dimensions: 2200 x 75 ft. / 671 x 23 m
Surface: turf
RUNWAY 12  RUNWAY 30
Traffic pattern: leftleft

Airport Ownership and Management from official FAA records

Ownership: Privately-owned
Owner: PATRICK A. ROGERS
PO BOX 2160
CRYSTAL BEACH, TX 77650
Phone 409-684-3553
Manager: PATRICK A. ROGERS
PO BOX 2160
CRYSTAL BEACH, TX 77650
Phone 409-684-3553

Airport Operational Statistics

Aircraft based on the field: 6
Single engine airplanes: 4
Multi engine airplanes: 2
    

Instrument Procedures

There are no published instrument procedures at XS77.

Some nearby airports with instrument procedures:

KGLS - Scholes International Airport at Galveston (17 nm SW)
T00 - Chambers County Airport (18 nm N)
54T - RWJ Airpark (21 nm NW)
KHPY - Baytown Airport (26 nm NW)
T41 - La Porte Municipal Airport (26 nm NW)
 
Loc | Ops | Rwys | IFR | FBO | Links
Com | Nav | Svcs | Stats | Notes


 
Area around XS77 (Seafood Warehouse Park Airport)
 
Road maps at: MapQuest Bing Google
 
Aerial photo
No photo
 
Sectional chart

 
Airport distance calculator
Flying to Seafood Warehouse Park Airport? Find the distance to fly.

From to XS77

Sunrise and sunset
Times for 16-Oct-2018
 Local
(UTC-5)
 Zulu
(UTC)
Morning civil twilight06:5811:58
Sunrise07:2212:22
Sunset18:4723:47
Evening civil twilight19:1100:11

Current date and time
Zulu (UTC)  16-Oct-2018 09:19:55
Local (UTC-5)  16-Oct-2018 04:19:55
 
METAR
KGLS 
17nm SW 
160852Z AUTO 36016KT 4SM BR OVC004 21/21 A3000 RMK AO2 SLP159 T02060206 58010
KXIH 
18nm S 
160855Z AUTO 05020KT 24/22 A2996 RMK A01
KEFD 
29nm W 
160850Z 35007KT 2SM BR OVC005 15/14 A3003
KLVJ 
33nm W 
160853Z AUTO 01006KT 3SM BR OVC003 16/16 A3003 RMK AO2 SLP168 T01560156 58013
TAF
KGLS 
17nm SW 
160545Z 1606/1706 01016G24KT P6SM VCSH OVC007 FM161300 36014G22KT P6SM OVC011 FM162000 36015KT P6SM VCTS OVC010CB
NOTAMs
Click for the latest NOTAMs
NOTAMs are issued by the DoD/FAA and will open in a separate window not controlled by AirNav.

 

 
 

Would you like to see your business listed on this page?

 If your business provides an interesting product or service to pilots, flight crews, aircraft, or users of the Seafood Warehouse Park Airport, you should consider listing it here.  To start the listing process, click on the button below
 
Add a business
 

Other Pages about Seafood Warehouse Park Airport

Update a link
 
Copyright © AirNav, LLC. All rights reserved. Privacy Policy  Contact